Location: Bluff Heights
(33.7692°N, 118.1592°W)
Time: 12:29:35
(UTC+00:00)

ISS - Visible Passes

Search period start: 28 November 2022 00:00
Search period end: 08 December 2022 00:00
Orbit: 411 x 420 km, 51.6° (Epoch: 28 November)

Date Brightness Start Highest point End Pass type
(mag) Time Alt. Az. Time Alt. Az. Time Alt. Az.
04 Dec -1.7 02:11:29 10° NNW 02:12:40 17° N 02:12:40 17° N visible
05 Dec -1.8 01:23:15 10° N 01:25:08 14° NNE 01:26:27 12° NE visible
05 Dec -0.9 02:58:50 10° NW 02:59:22 14° NW 02:59:22 14° NW visible
06 Dec -3.9 02:10:00 10° NW 02:13:17 63° NE 02:13:26 62° ENE visible
07 Dec -3.0 01:21:18 10° NNW 01:24:21 33° NE 01:27:22 10° ESE visible
07 Dec -1.0 02:58:33 10° W 03:00:51 18° SW 03:00:53 18° SW visible
